Location: Lafig�re
(44.4503°N, 4.0357°E)
Time: 14:35:37
(UTC+00:00)

Vanguard 2 Rocket - Pass Details

Date: 21 June 2021
Orbit: 555 x 3325 km, 32.9° (Epoch: 28 July)

Event Time Altitude Azimuth Distance (km) Brightness Sun altitude
Rises 19:59:06 0° 251° (WSW) 7,296 12.0 -4.7°
Reaches altitude 10° 20:04:13 10° 248° (WSW) 6,275 11.6 -5.4°
Maximum altitude 20:23:02 54° 179° (S) 3,191 9.4 -7.8°
Drops below altitude 10° 20:35:53 10° 107° (ESE) 4,445 9.9 -9.4°
Enters shadow 20:38:16 - 103° (ESE) 4,991 10.2 -9.7°
